User: anonymous   Login
Location: Moscow
(38.8570°N, 84.2291°W)
Time: 07:43:54
(UTC+00:00)
Language:

MOZHAYETS 4 - Orbit

View from above orbital plane
View from above orbital plane
View from above satellite
View from above satellite

Ground track
Ground track

The orbit is defined by the following mean orbital elements,

1 27939U          26069.96215992 +.00000000 +00000-0 +32416-3 0 00008
2 27939  98.3442 251.5585 0010514 215.7887 305.2840 14.73260539    04
Epoch (UTC): 10 March 2026 23:05:30
Eccentricity: 0.0010514
inclination: 98.3442°
perigee height: 643 km
apogee height: 658 km
right ascension of ascending node: 251.5585°
argument of perigee: 215.7887°
revolutions per day: 14.73260539
mean anomaly at epoch: 305.2840°

The dashed part of the orbit path shows where the satellite is in the earth's shadow,  

DLR